Starlink 5263

operational
NORAD ID: 54193 Int'l Des: 2022-141 Owner: SPXS Country: US Constellation: starlink
LEOCIRCULAR

关于 Starlink 5263

正在加载描述...

实时位置

正在加载3D地球...

即将过境

高度历史

Altitude vs Time

uPlot chart will show altitude changes over time

两行轨道根数

1 54193U 22141AN 26062.17394655 .00000355 00000-0 40368-4 0 9996
2 54193 53.2186 23.4105 0001412 90.5861 269.5293 15.08837130185018
Epoch: Mar 3, 2026 • Age: 31 hours

当前状态

高度 551.3 km
速度 7.59 km/s
星下点 -34.29°S, 80.81°E
发射日期 Oct 28, 2022
运行时间 3.3 years
类型 internet

技术详情

分类 Payload
质量 305.00 kg
干质量 290.00 kg
总质量 305.00 kg
长度 0.20 m
直径 2.80 m
跨度 9.00 m
形状 Box + pan
制造商 SPXS
平台类型 Starlink
阶段状态 In Orbit
所有者/国家 SPXS/US

大型星座

Loading constellations...